GFSWCAN_925_thetae_219.txt.gz
Theta_e
325 324 324 322 321 321 322 321 321 321 320 319 317 316 315 308 300 301 301 300 300 298 296 295 295 295 296 296 294 293 294 293 290 290 293 293 293 293 291 292 292 290 283 284 285 282 291 292 294 294 295 295 295 294
325 325 324 323 321 321 322 322 321 321 321 320 317 315 308 308 300 299 299 298 298 296 295 294 293 293 293 293 292 292 295 293 293 292 290 291 292 290 291 291 290 290 289 286 288 290 291 292 293 293 294 294 294 294
325 325 325 324 323 322 322 322 322 322 322 320 316 308 302 303 298 301 297 296 295 295 294 293 294 293 294 294 295 292 290 292 293 292 289 289 290 288 288 290 290 290 291 289 290 292 292 294 293 293 294 294 294 294
324 325 325 326 324 322 322 322 321 321 321 317 309 302 300 299 296 299 296 296 296 296 294 292 292 292 293 293 295 295 294 295 296 290 286 286 288 288 289 290 290 289 291 291 290 292 293 293 293 293 294 294 294 295
324 324 325 326 324 323 321 321 320 319 318 313 305 300 297 295 295 296 296 296 296 298 294 292 291 292 293 293 294 293 293 293 287 288 286 288 289 288 289 288 290 290 291 291 291 292 291 292 293 294 293 294 294 294
323 323 325 325 324 322 321 321 321 319 314 308 300 295 295 295 295 296 293 295 293 293 293 294 290 292 292 292 293 293 293 293 287 289 289 289 290 289 287 289 291 292 292 292 291 291 292 292 293 294 294 294 294 294
324 323 324 323 323 322 321 321 318 310 302 299 295 294 294 295 295 295 296 293 293 292 292 289 288 290 292 292 293 292 293 291 289 286 289 289 290 288 285 289 292 292 292 291 292 291 292 293 293 294 294 293 293 294
324 323 322 322 321 321 321 316 307 301 298 295 294 293 293 294 292 290 292 293 292 294 294 292 288 289 290 289 288 292 287 286 287 286 287 289 288 286 286 291 292 292 291 291 291 292 292 292 294 294 293 292 293 293
323 324 323 322 321 320 315 306 301 298 296 294 293 293 293 294 290 289 290 290 291 293 293 290 291 292 290 290 289 290 289 285 286 285 287 288 286 286 289 290 292 291 291 290 290 292 292 292 293 294 292 292 292 293
323 323 324 322 320 314 304 300 298 295 294 293 294 292 292 290 289 290 290 291 291 292 288 290 290 291 291 292 289 288 286 286 285 289 288 285 289 290 291 292 290 291 291 292 291 292 292 292 293 293 291 292 293 294
322 322 322 320 311 303 300 297 295 293 294 294 291 290 290 290 290 291 289 291 291 287 287 289 290 291 290 293 291 289 286 281 284 290 287 289 289 290 291 291 292 292 292 292 292 293 293 294 294 292 292 294 294 294
322 321 318 310 302 299 297 295 294 295 294 292 290 289 290 291 291 290 289 288 289 291 289 291 290 290 289 291 289 287 286 284 287 289 285 291 289 290 291 292 292 292 292 292 293 293 293 294 294 293 294 294 294 294
321 318 306 302 299 297 295 294 295 292 291 293 291 290 290 289 292 290 288 289 291 291 290 290 290 289 290 289 289 289 285 288 289 286 289 288 290 290 290 291 291 292 292 291 292 293 293 294 294 294 294 294 294 294
317 306 301 299 297 295 294 293 291 293 292 292 292 291 292 290 292 292 290 291 291 290 290 290 291 291 291 290 288 289 288 288 287 288 290 289 288 289 290 291 290 291 291 291 292 292 292 292 292 292 292 293 294 294
304 301 299 297 294 293 291 293 292 292 291 292 291 290 291 289 289 289 290 290 290 290 290 291 291 290 289 288 288 288 287 286 285 290 289 287 288 288 289 290 290 290 291 291 291 291 291 291 291 291 292 292 293 293
296 293 293 292 292 292 292 291 289 289 290 290 288 288 288 290 290 290 290 290 290 290 290 290 289 287 286 287 286 289 288 288 286 288 287 287 288 287 289 290 290 291 291 291 291 290 291 291 291 291 292 292 293 292
292 292 291 290 291 290 290 290 289 289 289 287 288 288 290 291 290 290 290 290 291 290 289 288 288 288 287 286 288 290 289 288 288 288 288 288 288 289 290 290 290 290 290 291 291 291 290 291 291 291 291 293 293 293
291 290 290 290 291 291 289 289 289 288 288 289 290 290 289 289 289 288 289 290 290 291 290 289 288 287 287 287 290 289 287 287 286 286 286 289 289 290 290 290 290 290 290 290 291 291 290 291 291 291 292 293 293 293
290 290 290 290 290 289 287 288 288 288 288 288 287 287 287 287 288 289 290 291 291 290 288 287 287 288 289 287 287 286 287 286 286 286 288 290 290 290 290 290 290 290 290 291 291 290 290 291 292 292 292 293 293 292
291 291 292 291 290 289 287 288 289 288 289 288 287 287 287 287 288 288 289 289 289 287 285 284 288 289 287 286 286 286 286 287 285 285 285 288 289 289 289 289 289 290 290 290 291 290 290 291 292 292 292 293 293 292
291 291 290 289 287 288 287 286 286 288 288 288 287 287 287 287 287 287 287 288 287 285 289 288 286 287 289 289 289 289 288 288 286 286 285 285 289 289 290 290 290 290 290 290 291 290 290 290 292 292 292 293 293 292
288 290 288 288 287 286 286 287 288 288 288 288 288 288 288 288 288 288 285 287 288 288 286 286 287 288 288 288 289 289 289 289 289 289 289 289 289 288 289 289 289 290 290 290 291 290 290 290 291 292 293 293 293 292
288 288 287 287 286 285 286 287 287 288 287 287 288 288 287 287 287 287 288 287 287 288 289 288 289 289 289 289 289 289 289 289 288 288 289 289 289 289 289 290 290 290 290 291 291 290 289 290 291 292 293 293 292 291
289 286 284 284 284 286 282 284 287 287 288 287 286 287 287 286 286 287 289 288 286 288 288 288 289 288 288 288 288 288 289 289 289 289 289 289 289 289 290 290 290 291 291 291 290 290 290 290 292 293 293 292 291 290
286 283 283 284 283 284 285 284 286 286 286 287 285 284 285 286 286 288 289 287 285 285 286 288 288 288 285 286 287 288 290 290 289 289 289 289 289 290 290 291 291 291 291 291 290 289 291 291 292 292 292 291 290 290
284 280 283 283 285 286 287 285 286 287 287 285 287 287 286 286 285 286 288 286 285 285 286 287 286 285 286 287 287 288 289 289 289 289 289 290 291 290 290 290 290 290 291 290 289 290 291 292 292 292 291 290 290 289
282 281 285 284 286 286 286 286 286 286 287 285 285 284 283 282 285 287 285 287 287 289 289 289 289 288 288 289 289 289 289 289 289 289 289 290 290 290 290 290 290 291 290 290 289 291 292 292 292 291 291 290 289 289
284 286 286 285 286 285 285 283 285 286 287 285 286 285 284 285 286 285 286 289 289 289 290 289 289 289 289 289 289 289 288 288 288 288 288 289 289 289 289 290 290 290 290 290 289 291 291 291 291 291 290 290 289 288
286 285 283 281 284 285 285 286 286 285 284 285 285 286 286 285 286 288 289 289 289 289 289 289 289 289 289 289 289 289 288 288 288 287 287 286 288 290 290 289 289 289 289 289 290 291 291 290 290 290 290 289 288 288
285 284 283 281 278 283 285 284 285 283 285 285 285 285 285 286 288 289 289 288 288 288 288 288 288 287 288 288 288 288 288 288 288 288 286 286 288 289 290 290 289 289 289 289 290 290 290 290 289 289 288 288 288 287
283 284 283 283 281 284 284 284 286 286 285 282 284 284 285 285 287 288 288 289 289 288 287 287 287 287 287 287 287 287 287 288 288 288 288 288 288 289 290 290 290 289 289 290 290 290 290 289 288 288 288 288 288 287
283 283 283 279 280 280 283 283 283 284 283 283 283 282 284 285 285 286 288 288 288 287 288 288 287 288 288 288 288 288 288 288 288 288 288 288 288 288 288 289 289 289 289 290 290 290 289 289 289 289 289 289 288 287
282 283 282 281 278 281 282 282 282 281 281 282 283 285 285 285 285 286 288 288 288 288 288 288 287 287 287 287 287 287 287 287 287 287 288 288 288 288 288 288 288 288 289 289 290 289 289 289 289 289 288 288 288 287

GFSWCAN_925_thetae_222.txt.gz
Theta_e
320 320 320 320 320 319 320 319 320 320 319 320 320 320 317 311 312 312 299 299 301 294 293 294 294 296 296 295 295 293 291 291 289 289 292 292 292 292 290 291 291 289 283 282 281 281 290 291 293 293 293 293 293 293
322 321 320 321 320 319 320 320 319 320 320 320 320 319 317 315 308 311 298 298 299 295 293 293 292 293 293 294 292 290 293 293 291 291 289 290 291 289 290 289 289 288 287 285 287 288 289 291 292 292 292 293 293 293
323 323 322 322 321 320 320 320 320 320 320 320 321 320 316 309 307 309 297 298 296 293 291 292 292 293 294 295 295 292 289 291 292 290 287 286 288 287 288 289 289 289 288 288 289 291 291 292 292 292 293 293 293 293
323 324 323 323 322 320 321 321 320 320 320 320 318 316 312 311 305 308 298 296 296 293 290 290 292 292 293 295 296 295 294 294 293 288 283 282 287 287 286 288 289 288 289 290 289 290 291 292 291 292 293 293 293 293
323 324 324 323 323 321 320 321 321 321 320 319 314 308 308 305 300 301 296 296 296 298 290 290 291 292 294 293 293 293 293 291 284 286 284 286 288 287 286 287 288 288 290 291 290 290 290 290 290 292 293 293 293 292
323 323 324 324 323 322 321 319 319 319 319 316 307 304 299 297 298 298 294 294 294 293 289 291 289 292 293 293 293 293 293 291 285 287 287 287 288 287 282 287 289 291 290 290 290 290 290 290 292 293 292 293 292 292
323 323 324 324 324 323 320 319 319 318 317 310 303 296 295 296 296 296 297 293 293 293 289 288 287 290 291 292 291 291 292 288 287 283 288 288 289 285 282 289 290 291 291 291 291 290 291 291 291 292 293 293 292 292
321 322 323 323 323 321 320 319 318 315 307 302 295 295 295 295 295 293 293 292 293 293 292 289 286 289 290 287 288 290 286 283 285 284 286 289 286 284 285 290 290 290 290 291 290 291 290 291 292 292 293 292 291 292
321 322 322 322 322 321 319 318 312 304 300 295 294 294 294 293 290 292 291 291 292 293 290 287 289 291 290 288 287 288 286 285 285 285 287 287 284 285 288 289 290 291 291 290 290 290 291 290 290 292 292 291 291 292
321 320 321 321 321 320 318 310 303 299 296 294 294 294 292 290 290 290 290 290 291 291 288 290 290 291 291 292 288 286 283 285 285 288 286 282 288 289 289 289 290 290 291 291 290 291 290 291 292 292 291 291 292 292
321 320 321 321 320 317 310 302 297 296 294 295 290 290 290 290 291 290 290 288 285 286 287 289 290 291 291 292 292 287 283 278 284 289 285 287 288 289 290 289 290 291 292 291 291 291 292 293 292 292 291 292 293 293
322 321 321 321 318 311 302 299 297 299 296 294 291 290 291 291 290 291 289 283 289 290 289 290 291 290 290 290 290 285 285 284 287 288 285 290 288 290 290 290 291 291 291 291 291 292 293 293 292 292 292 292 293 293
321 321 320 319 309 302 301 300 299 297 295 294 293 291 292 290 291 291 288 287 292 290 290 290 290 291 290 289 288 287 284 287 287 286 290 288 289 289 289 290 291 291 291 291 291 292 292 291 291 291 291 292 293 293
320 320 317 308 303 300 298 297 295 299 300 292 292 291 293 290 290 290 289 291 291 290 290 290 291 291 290 289 287 285 284 287 287 289 290 289 287 288 288 290 290 291 290 290 290 290 290 290 290 291 291 292 293 291
319 317 308 303 300 298 297 295 296 297 291 291 291 292 292 291 289 289 289 290 290 290 291 291 291 290 289 288 287 287 289 286 288 291 289 287 286 287 287 289 289 290 290 290 290 290 290 290 290 291 292 293 293 292
316 307 305 300 298 295 295 293 294 290 289 289 288 289 289 291 290 290 291 291 290 290 290 290 289 288 288 288 288 290 289 289 288 287 287 285 285 286 287 289 289 290 290 290 290 290 290 290 290 290 292 293 292 292
305 302 300 297 294 292 292 291 289 288 288 288 289 290 291 291 291 290 290 290 290 290 289 288 289 288 288 288 289 290 290 289 288 287 286 286 286 288 289 289 289 289 289 289 290 290 290 290 291 291 292 293 292 292
295 293 291 289 291 291 291 289 289 289 289 290 291 290 290 290 290 290 290 290 291 291 290 290 289 288 288 289 290 289 287 286 286 287 286 288 289 289 290 289 289 290 289 289 291 290 290 290 291 291 291 292 292 291
290 290 290 293 293 290 289 288 288 288 289 289 289 289 289 289 289 290 290 290 290 290 289 287 289 289 290 288 288 287 286 285 286 286 287 288 289 289 288 288 289 289 289 289 290 291 290 290 292 292 292 293 292 291
289 289 290 291 291 288 288 288 288 289 289 288 288 288 288 288 288 289 289 289 288 287 286 285 288 288 287 286 285 286 286 286 284 285 285 286 288 288 288 289 289 289 289 289 290 290 290 290 291 292 292 292 292 290
289 289 290 289 287 288 287 287 288 289 288 288 287 288 288 288 288 288 288 287 287 287 289 287 286 286 288 288 288 287 287 287 286 286 284 285 288 288 289 289 289 289 289 289 289 290 290 289 290 292 292 292 292 290
289 289 288 288 287 287 287 287 288 288 288 288 288 288 288 289 288 288 286 288 288 288 287 286 287 287 287 288 288 289 289 289 288 288 288 288 288 288 288 289 288 288 289 289 289 290 290 289 289 292 292 292 291 290
288 287 286 286 286 287 287 287 288 289 288 288 288 288 288 288 287 286 288 287 287 287 288 287 288 288 288 288 288 288 289 288 288 288 288 288 288 288 288 289 289 289 289 290 291 290 290 289 290 292 292 292 291 289
287 285 284 285 285 285 284 286 287 288 289 287 288 288 287 287 286 287 289 288 286 286 287 287 288 287 287 287 287 288 288 288 288 288 288 288 287 288 288 289 289 289 290 290 290 290 289 290 291 292 292 292 290 289
286 283 285 285 285 286 286 286 287 287 288 287 286 286 286 286 287 288 288 287 285 285 285 287 287 287 284 285 286 288 289 289 289 288 289 289 288 288 289 289 289 290 290 290 290 290 290 290 291 292 291 291 290 289
283 281 284 285 286 287 287 287 287 288 287 287 288 287 286 287 286 287 288 286 285 285 285 286 285 284 285 286 286 287 289 289 289 288 289 289 289 290 289 289 289 291 291 291 290 290 289 290 291 292 291 290 289 289
284 284 285 285 286 286 287 286 286 287 287 286 286 286 284 284 286 286 285 285 286 287 289 288 288 288 288 288 288 288 288 289 289 288 289 289 289 290 290 290 290 291 290 290 290 289 290 291 291 291 291 290 289 288
285 286 287 286 286 285 285 285 286 286 287 286 286 285 285 285 286 285 285 288 289 288 288 288 288 288 288 288 288 288 288 288 288 288 288 288 288 289 289 290 290 290 290 290 290 289 290 291 291 291 290 289 289 288
286 284 284 283 285 286 285 286 286 286 285 286 286 286 286 285 285 286 287 288 289 289 289 288 288 288 288 288 288 289 288 288 288 286 286 285 287 288 290 290 289 289 289 289 289 289 290 291 291 290 290 289 288 288
285 284 283 281 281 284 285 284 285 283 283 284 284 284 285 286 287 288 289 288 288 288 288 288 288 288 288 288 288 288 288 288 288 288 286 286 288 288 288 290 290 289 289 289 289 290 290 290 290 289 289 288 288 287
283 283 283 283 282 284 283 283 284 284 284 282 282 284 285 285 287 288 288 289 289 288 288 288 288 287 287 287 287 287 287 288 288 288 288 288 287 288 288 289 290 289 289 289 289 290 290 290 289 289 288 288 287 287
283 283 283 280 281 281 282 283 282 283 282 283 282 280 283 284 284 285 288 288 288 288 288 287 287 287 288 287 287 287 287 287 287 287 287 287 287 288 288 288 289 289 289 289 289 290 290 290 289 288 288 288 288 287
281 282 281 281 279 281 282 282 281 280 280 280 281 284 284 284 284 286 288 288 289 289 289 288 288 288 287 287 287 287 287 287 287 287 287 288 288 288 288 288 288 288 288 289 289 290 290 289 288 288 288 288 288 287

GFSWCAN_925_thetae_225.txt.gz
Theta_e
316 316 316 317 317 317 318 319 318 319 320 320 318 314 313 317 315 315 298 302 303 292 292 293 293 296 296 295 295 293 292 291 289 290 292 292 292 292 290 290 291 288 283 282 279 280 288 290 292 292 291 292 292 292
316 317 318 318 317 318 318 318 319 319 320 321 320 318 316 314 313 312 299 299 301 294 292 292 292 292 293 294 291 290 292 292 292 291 289 290 290 289 289 288 288 288 287 285 286 287 288 289 292 291 291 291 292 293
317 318 319 318 318 318 318 318 319 319 320 320 320 318 316 314 318 313 300 300 297 292 292 292 291 292 294 294 294 292 289 290 291 288 286 285 287 287 288 289 289 288 287 287 289 290 290 290 290 290 291 291 292 292
319 319 319 319 319 319 319 318 319 319 320 320 320 319 317 314 313 309 302 298 299 292 292 290 292 293 293 295 295 294 293 293 291 286 281 281 287 286 285 287 288 287 287 288 288 289 290 291 290 290 291 292 293 293
319 319 319 319 319 319 319 319 318 319 320 320 319 318 317 311 306 303 298 297 298 301 290 290 291 292 293 294 294 294 293 290 284 286 283 285 287 286 284 286 287 287 288 289 289 289 289 289 289 291 291 291 292 292
320 320 320 320 320 319 319 320 319 319 319 319 318 314 313 304 303 303 294 295 296 295 290 289 288 291 291 292 292 292 292 289 284 287 286 287 287 286 282 286 287 289 289 289 289 290 289 289 290 292 291 292 292 292
321 320 321 320 320 320 319 319 319 318 318 313 303 302 301 300 300 299 298 294 294 295 288 289 288 290 291 291 290 290 290 286 286 283 286 287 288 283 281 288 289 290 290 290 290 289 290 290 290 290 291 292 292 291
321 320 321 321 320 320 319 318 317 317 312 303 301 297 296 297 298 293 292 292 293 292 290 287 285 289 290 287 289 289 285 282 284 283 285 288 286 283 284 288 289 290 290 289 290 290 289 290 290 291 292 292 290 291
321 321 322 321 320 319 318 317 317 315 310 302 297 296 297 296 293 292 292 292 293 293 291 290 289 289 290 287 286 287 285 284 283 284 285 286 284 285 288 287 289 290 291 290 289 289 290 289 289 291 291 291 290 291
321 320 320 320 319 319 318 317 314 311 303 295 296 295 293 291 291 292 292 291 291 290 290 287 287 289 289 289 285 286 282 281 283 286 285 282 287 288 287 287 289 289 290 290 290 289 289 290 290 291 291 291 290 291
320 320 319 319 319 318 317 312 308 298 295 298 292 291 290 290 291 292 292 293 288 286 285 289 290 290 290 291 289 287 282 277 283 288 285 288 287 288 288 288 289 290 291 290 290 291 291 291 291 291 290 290 291 291
319 319 319 319 318 317 310 306 298 301 299 299 294 291 292 292 291 294 293 289 288 290 288 290 290 290 290 289 289 284 283 282 286 287 286 290 287 288 288 288 289 290 291 291 291 292 292 292 291 290 290 290 291 291
319 319 319 318 317 309 308 306 302 305 297 294 293 293 295 291 294 295 293 287 289 289 289 289 290 291 290 289 288 285 283 287 287 286 290 288 288 288 288 288 289 291 290 291 290 290 290 290 290 290 290 291 292 291
318 318 318 317 312 311 311 301 300 305 308 295 294 293 296 293 293 293 291 288 289 289 290 290 291 292 290 290 286 287 284 286 286 288 290 288 287 287 287 289 289 290 290 290 290 290 289 289 290 290 291 292 292 291
318 318 316 311 310 309 301 298 303 306 294 294 295 302 293 292 286 286 286 287 289 290 290 291 290 290 290 289 285 287 287 285 286 288 288 287 285 286 286 288 289 289 289 290 290 289 289 289 290 290 291 292 292 291
318 313 311 305 307 301 298 299 299 292 289 290 289 290 290 291 286 288 289 290 290 291 290 290 289 289 288 287 285 289 289 289 286 287 286 285 285 285 287 289 289 290 289 289 289 290 289 289 290 290 291 292 292 291
313 310 307 303 301 298 297 298 290 289 289 288 289 290 291 291 291 291 290 290 291 293 290 289 289 290 287 283 287 289 289 289 287 286 285 285 285 286 288 288 289 289 289 289 289 290 289 289 290 291 291 292 291 291
313 309 303 301 296 293 293 290 289 289 289 290 291 291 290 290 290 290 290 290 291 290 290 290 290 290 288 287 289 290 287 286 285 286 286 287 288 288 289 289 289 289 289 289 289 289 289 289 290 291 291 292 292 291
306 302 298 294 296 295 289 288 288 288 289 289 289 290 290 290 290 290 290 290 290 290 289 289 290 290 289 288 289 287 286 286 286 285 286 288 289 289 289 288 288 288 289 288 289 289 289 289 290 291 291 292 291 290
299 295 294 296 297 289 289 288 289 289 289 289 289 289 289 290 290 290 289 289 288 287 287 287 289 289 288 287 286 287 286 286 286 285 284 285 287 287 287 288 288 288 288 288 289 289 290 289 289 290 291 291 291 289
293 291 291 290 288 288 287 288 289 289 288 289 289 289 289 289 289 289 288 287 288 288 288 288 287 286 286 286 288 288 287 288 286 286 285 284 286 287 288 288 288 288 288 288 288 289 289 289 289 290 291 292 291 289
289 290 289 289 288 288 287 287 288 288 289 289 289 289 289 289 289 288 287 288 288 288 287 287 287 287 287 286 287 288 288 288 288 288 287 287 286 286 287 288 288 288 288 288 288 288 290 289 289 290 292 291 290 289
291 290 287 288 288 288 288 287 289 289 289 289 289 289 288 288 288 286 288 287 287 287 287 287 288 288 288 288 288 288 288 288 287 287 288 288 288 288 288 288 288 288 288 289 289 290 290 289 289 290 292 291 290 289
288 285 285 286 286 286 286 287 288 289 289 289 289 288 288 288 287 288 289 288 287 286 286 286 287 286 286 287 287 287 288 288 288 287 288 287 287 287 288 288 288 288 289 289 289 290 289 289 289 291 292 291 290 288
286 284 286 286 286 287 287 287 288 288 289 289 287 287 287 287 288 288 288 287 286 285 285 286 287 287 285 285 286 287 288 288 287 287 288 288 288 287 288 288 289 289 289 290 290 290 290 289 290 291 291 291 289 288
285 284 286 286 287 288 289 289 289 289 288 288 288 287 287 288 287 288 288 287 285 285 285 286 286 284 284 287 286 287 288 288 288 288 288 288 288 288 288 288 289 290 290 291 290 290 290 289 290 291 291 290 289 288
285 285 286 285 287 287 287 288 288 288 288 287 287 287 286 286 286 286 285 285 285 287 287 288 288 287 287 287 287 288 288 288 288 288 288 289 289 289 289 290 290 290 290 290 290 290 290 289 290 291 291 290 289 288
286 287 288 286 287 288 288 288 287 287 287 287 287 286 286 286 286 285 285 287 288 288 288 288 288 288 288 288 287 287 288 288 288 288 288 288 289 289 289 289 290 290 290 290 290 289 289 289 290 291 291 290 289 288
286 285 286 286 287 286 286 286 286 286 286 286 286 286 285 284 284 285 286 288 288 288 287 287 287 287 287 287 288 288 288 288 287 286 285 284 286 287 288 289 289 290 290 290 290 289 289 290 290 291 290 290 289 288
285 284 284 284 284 286 285 284 285 284 283 284 284 284 284 284 286 287 287 288 287 287 288 288 288 287 287 287 287 287 288 288 288 288 286 285 287 288 288 288 290 290 289 289 289 289 289 290 290 290 289 289 288 287
283 284 284 284 284 284 283 283 284 284 283 283 282 284 285 284 286 287 287 288 288 288 288 287 287 288 288 287 287 287 287 288 288 288 288 288 287 287 288 288 288 290 289 288 289 289 289 290 290 289 289 288 288 287
283 283 284 284 283 282 282 283 283 284 283 284 283 281 283 283 284 285 288 288 287 287 288 288 287 288 288 288 288 288 288 288 288 288 288 288 288 288 287 287 287 289 289 289 288 289 289 290 289 289 289 288 287 287
282 282 282 283 282 282 283 282 282 282 281 282 282 283 283 284 284 285 287 288 289 289 289 289 288 288 288 287 287 287 287 287 287 287 287 287 287 287 287 287 287 287 288 289 288 289 289 289 289 289 288 288 287 287

GFSWCAN_925_thetae_231.txt.gz
Theta_e
321 319 319 316 312 313 315 316 317 316 308 310 311 310 311 310 311 312 300 303 301 290 289 291 292 295 294 293 294 291 292 291 291 291 294 293 293 292 292 290 291 290 288 288 283 286 289 288 291 292 291 291 291 291
322 320 318 316 311 313 315 317 317 316 309 309 309 311 314 312 314 313 298 298 300 292 290 291 291 292 292 293 290 289 292 292 292 292 291 290 292 290 289 290 287 290 290 290 289 289 287 288 291 290 290 290 290 291
321 321 317 315 311 314 316 317 317 313 308 312 312 312 314 315 315 315 301 299 296 290 290 290 289 292 294 293 293 292 288 290 290 287 288 288 290 288 289 289 288 287 285 289 289 287 287 288 288 289 290 290 290 290
320 321 317 315 312 314 316 317 317 311 310 312 316 318 318 317 313 314 307 302 302 294 293 290 292 292 292 294 294 293 292 291 288 285 284 285 290 286 287 287 288 287 286 287 288 288 289 290 290 289 289 290 290 291
321 321 317 314 312 315 316 317 316 311 311 314 318 315 313 313 311 311 306 302 304 304 290 289 290 291 292 293 293 293 292 288 285 287 286 287 286 286 284 286 286 285 287 289 289 288 290 289 288 289 289 290 290 290
320 319 317 314 312 315 317 316 316 313 314 315 315 310 309 311 314 316 299 301 300 299 290 290 288 290 290 291 291 291 290 287 285 287 286 286 285 286 286 288 286 285 285 287 290 288 288 288 289 290 289 290 290 291
319 319 316 314 313 315 317 316 316 313 314 315 313 308 307 311 316 307 303 298 300 301 289 287 288 289 289 290 289 289 288 285 285 284 287 288 287 284 284 287 286 287 287 288 289 289 290 289 290 289 290 291 290 290
318 318 315 313 313 315 316 316 315 314 314 311 304 304 308 310 300 296 294 296 298 298 291 287 283 288 289 286 288 287 284 283 283 284 285 288 285 283 286 286 287 288 288 288 288 289 289 289 289 290 290 289 289 289
317 317 314 313 314 316 316 315 315 314 312 307 305 309 312 309 296 294 295 296 299 300 288 288 291 291 288 285 285 287 284 284 283 285 286 286 285 287 288 286 288 288 289 289 288 289 289 289 289 289 289 288 288 289
316 315 314 313 314 316 316 315 315 312 308 305 311 309 293 292 292 296 296 295 291 288 286 288 286 289 287 286 283 285 283 283 284 286 285 285 287 286 286 286 288 287 288 289 289 290 290 290 289 288 288 288 288 289
316 315 314 313 315 316 316 315 311 303 304 312 295 293 291 292 293 293 293 297 287 290 286 287 288 288 287 287 287 286 282 280 285 288 287 288 287 287 285 285 288 289 290 290 290 290 291 290 289 288 288 288 290 290
316 315 314 313 314 316 316 314 304 310 311 307 296 292 294 293 294 298 295 290 287 294 288 289 289 288 287 286 286 283 284 283 287 286 286 290 288 287 286 286 287 289 289 289 290 290 290 290 289 288 288 290 290 290
316 315 314 313 312 316 316 312 309 312 304 302 296 294 297 294 299 302 301 291 289 289 288 289 289 287 287 285 284 285 285 287 287 288 291 289 287 286 286 286 286 289 289 290 289 289 289 288 288 289 289 291 291 290
315 315 313 311 313 316 315 307 310 312 315 299 302 300 303 299 299 298 298 293 290 289 290 289 289 290 288 287 285 286 284 288 289 291 291 289 286 286 286 287 287 287 289 289 289 289 288 288 288 289 290 291 290 290
316 314 310 309 314 315 310 309 311 314 307 303 302 312 301 292 285 286 285 287 288 290 289 288 287 288 285 285 286 286 287 288 290 291 289 287 286 286 286 286 288 287 288 288 289 289 289 288 288 289 290 291 291 290
315 310 311 308 315 310 309 308 308 304 293 298 296 296 291 289 287 287 288 289 290 290 287 288 285 285 284 287 286 289 289 291 292 288 286 286 286 286 286 288 289 289 289 289 289 289 289 288 288 290 290 291 291 290
311 313 309 306 307 306 305 308 301 302 307 293 292 290 290 293 292 289 290 291 291 292 289 286 289 291 286 285 288 289 291 291 288 286 285 288 287 286 287 288 288 289 288 287 288 289 289 288 288 289 290 290 291 290
316 310 305 303 302 302 303 297 298 297 294 290 293 292 291 291 291 291 290 291 292 288 288 289 287 286 289 288 289 290 289 286 285 286 286 287 287 288 289 289 289 288 288 288 287 288 288 288 288 289 290 290 290 290
312 305 304 304 305 301 292 291 291 292 289 290 291 290 290 290 290 291 291 291 290 290 290 291 290 290 290 289 288 289 288 287 286 286 285 287 289 289 289 288 288 288 288 288 287 288 288 289 288 288 289 290 290 289
306 304 303 306 306 291 290 288 289 291 291 290 290 291 291 290 291 291 291 290 290 291 290 290 290 290 288 288 289 289 288 287 288 288 286 284 287 288 288 288 288 288 287 287 287 287 288 288 288 288 289 290 290 289
304 303 303 302 292 289 289 289 289 290 289 290 290 290 291 291 291 291 291 289 290 290 291 288 288 286 286 287 288 288 287 289 290 289 287 284 285 287 287 286 287 287 287 287 287 287 288 288 288 288 289 291 290 289
303 300 298 294 288 287 288 288 289 289 290 290 290 290 291 291 291 290 288 290 291 290 289 288 287 286 287 287 288 288 289 289 288 287 287 286 283 284 285 286 286 286 287 287 287 287 287 288 289 288 289 290 290 289
300 300 291 289 289 288 288 288 290 290 290 290 289 290 289 290 289 289 290 290 289 288 288 287 286 287 286 287 287 287 288 288 287 287 287 288 288 287 287 287 287 287 286 287 287 288 288 289 289 288 289 290 290 289
299 287 287 287 288 288 287 288 289 290 290 289 289 288 288 288 287 289 290 289 286 287 286 286 286 286 286 287 287 287 288 289 288 288 289 287 286 286 287 287 287 287 287 288 288 288 289 289 288 288 289 290 290 288
289 285 288 287 287 288 288 289 289 288 289 289 288 288 288 288 288 289 289 288 288 287 286 286 287 288 288 287 286 286 288 290 287 286 286 287 287 286 286 286 287 287 287 287 288 288 289 289 288 288 290 290 290 288
286 286 288 288 288 289 290 289 289 290 289 288 288 287 288 288 288 288 289 289 290 288 287 287 287 287 287 287 286 285 286 288 288 287 287 287 287 287 286 286 286 287 287 288 288 289 289 289 289 288 290 290 289 288
287 286 287 288 290 290 290 290 290 289 288 287 288 288 289 290 289 289 289 289 288 287 287 287 288 288 287 286 287 287 288 288 288 288 288 288 287 288 288 287 287 289 290 289 289 290 290 289 289 288 289 290 290 289
288 289 289 290 290 290 291 290 289 288 289 288 289 289 290 290 289 288 289 287 288 287 287 287 287 288 287 287 288 287 287 287 287 287 287 287 288 288 288 289 289 290 290 290 290 290 290 289 289 288 289 290 290 289
289 290 290 291 291 288 288 289 289 289 288 290 289 289 286 286 285 287 286 287 287 287 285 285 286 287 287 287 287 287 287 287 287 285 285 285 287 288 288 289 289 289 289 289 289 289 289 289 289 288 289 290 290 288
288 289 289 288 287 286 286 286 287 288 285 286 285 285 285 284 284 286 286 286 287 287 287 286 285 286 285 285 285 286 287 287 288 288 285 285 287 288 288 287 287 288 289 289 290 290 289 288 288 289 289 290 289 288
287 288 286 286 286 286 286 286 286 285 285 286 288 289 287 284 284 285 286 287 287 286 286 284 285 285 285 285 285 285 285 287 287 287 287 287 287 287 287 287 287 288 289 290 289 290 289 289 288 289 289 289 289 288
287 287 288 288 287 284 284 285 285 286 286 287 286 284 285 286 285 284 285 286 286 286 286 285 285 285 287 287 287 288 288 288 288 288 287 287 287 287 287 287 287 287 288 289 289 289 289 289 289 288 289 289 289 288
287 287 288 287 286 286 284 285 285 286 284 284 283 284 284 285 285 283 285 286 287 286 286 287 287 287 288 288 288 288 288 288 288 288 288 287 287 287 287 287 287 287 287 287 288 289 288 288 288 288 289 289 289 288

GFSWCAN_925_thetae_234.txt.gz
Theta_e
318 323 321 321 319 316 312 312 315 316 311 307 309 309 308 305 306 308 301 301 301 299 294 293 294 299 298 301 307 298 299 297 300 308 304 300 299 297 297 296 296 297 301 299 295 298 296 292 294 294 294 294 294 294
315 323 321 320 319 316 312 313 315 316 309 309 309 307 307 307 308 309 299 298 299 297 294 292 292 292 292 293 297 296 300 298 300 301 298 297 298 295 297 300 292 297 297 299 297 296 293 292 293 293 294 293 294 295
313 323 321 320 318 316 312 314 316 316 308 309 309 309 309 309 308 310 299 299 297 295 294 295 293 292 293 293 293 301 296 296 295 293 299 299 304 296 300 297 295 292 290 294 293 293 292 292 292 293 293 293 294 294
315 322 321 320 318 315 312 314 316 315 308 309 310 310 310 311 311 310 304 302 302 301 305 294 291 291 292 294 293 293 293 291 291 295 298 300 302 292 296 294 295 293 292 294 294 292 292 293 293 293 293 293 294 293
314 320 321 319 317 314 312 315 316 311 309 311 312 314 315 308 308 308 306 303 304 309 301 295 291 290 291 292 292 293 293 294 296 299 299 300 292 293 291 291 293 291 294 294 295 294 295 294 293 292 293 294 293 292
314 320 320 318 317 313 313 316 316 308 310 315 315 309 308 309 312 315 306 302 301 300 300 302 290 291 291 291 291 291 291 292 294 296 294 292 290 293 297 295 293 292 291 293 294 293 293 293 292 292 293 293 292 292
314 319 319 318 316 312 314 316 314 307 312 311 308 308 311 314 317 309 313 300 301 302 298 297 294 291 289 291 291 292 290 291 294 293 294 294 293 293 295 295 292 291 292 293 293 292 293 292 294 292 293 292 291 292
314 318 319 318 314 312 315 316 309 308 311 306 306 309 312 312 305 299 297 299 301 299 297 298 292 293 290 292 293 290 293 292 290 292 292 294 291 291 295 294 291 292 292 293 293 292 293 292 292 293 291 291 291 292
314 318 317 316 312 312 315 314 307 310 307 305 307 311 310 309 297 296 296 299 302 303 300 302 301 300 290 292 292 292 291 295 289 294 293 291 295 295 294 292 292 292 293 293 292 292 292 293 293 292 291 291 292 292
315 317 317 314 311 313 315 311 309 309 305 307 313 314 304 294 295 299 300 306 299 293 296 295 292 294 293 292 293 294 291 293 295 291 289 293 293 292 291 292 293 293 292 292 292 292 293 294 292 291 291 290 291 291
315 316 314 313 311 314 315 311 309 305 309 314 298 297 292 295 297 299 301 305 301 303 294 291 293 292 289 294 294 291 293 290 296 293 293 295 294 292 290 291 293 292 292 292 292 293 293 292 291 291 290 290 291 291
314 316 314 311 312 315 315 312 308 310 314 311 299 295 295 296 299 305 300 295 300 308 291 294 293 292 291 291 294 290 292 290 296 290 293 294 295 291 290 291 291 291 291 291 292 293 292 291 290 290 290 291 291 291
315 315 312 310 312 315 314 312 309 314 310 307 299 297 302 298 307 313 308 303 300 292 291 292 293 292 291 291 291 292 293 294 290 293 296 296 291 290 290 292 291 291 291 291 291 291 290 289 289 289 290 291 291 291
316 314 311 310 313 315 314 308 313 315 315 301 302 306 307 305 308 308 310 306 296 292 293 293 291 295 292 293 291 294 290 291 293 295 297 295 291 290 291 291 291 291 291 291 290 289 289 289 289 289 289 290 290 291
315 313 309 308 313 314 307 312 316 317 314 304 304 314 305 300 294 294 292 292 291 293 292 292 293 294 292 291 290 290 290 294 294 297 295 292 291 290 291 291 291 290 291 290 290 290 289 288 289 289 289 290 290 290
315 312 309 307 313 307 309 312 313 313 298 300 299 301 295 297 292 292 293 292 293 293 292 294 293 296 293 293 292 294 296 297 301 293 292 290 290 291 291 291 291 289 290 290 290 289 289 288 289 289 289 290 290 289
313 311 309 307 308 307 309 312 309 310 305 299 299 294 302 303 299 294 294 293 292 296 300 296 299 299 291 294 295 292 295 296 294 291 290 291 291 291 290 290 289 289 289 289 289 289 289 288 288 289 290 290 290 289
313 311 306 305 305 307 310 304 301 301 297 291 298 297 293 295 296 293 292 292 294 294 294 299 292 293 296 297 294 294 292 290 289 289 290 290 290 290 289 290 289 289 288 288 288 289 288 288 288 289 289 290 290 289
312 307 305 305 309 306 302 293 295 295 291 292 292 292 293 293 293 293 293 293 292 292 292 295 297 298 296 293 294 292 291 290 289 289 289 290 289 289 289 289 289 288 288 287 287 288 288 288 289 288 289 290 291 289
308 305 304 310 309 295 294 290 291 293 293 291 291 292 292 292 293 293 293 292 293 294 295 295 298 295 293 292 292 292 291 289 289 289 289 289 289 288 288 288 288 288 287 287 287 287 288 288 288 288 288 290 290 289
306 304 308 307 297 292 290 290 290 291 290 292 291 291 292 292 292 293 293 292 295 297 295 293 293 291 288 289 290 289 289 289 291 291 291 288 287 288 287 287 287 287 287 287 287 288 288 288 288 288 288 290 289 288
306 307 304 298 290 288 289 289 291 291 291 291 291 292 292 293 292 293 291 293 294 292 292 291 290 288 289 289 289 289 289 290 291 291 289 287 286 286 286 286 286 286 287 287 287 288 288 287 288 288 288 289 290 288
306 304 295 290 289 289 290 289 292 292 293 291 291 292 291 291 291 291 293 293 292 290 289 289 288 288 289 288 288 289 289 289 289 288 287 288 287 286 286 286 287 287 287 286 287 287 287 288 289 288 288 290 289 288
303 289 289 289 290 289 289 290 291 292 291 291 291 290 290 290 290 291 293 291 290 288 288 287 288 288 288 288 288 288 289 289 288 288 287 286 286 286 286 287 287 287 287 287 287 288 288 288 288 288 288 289 289 288
291 287 289 288 288 289 290 291 291 291 290 290 290 289 289 289 291 291 290 290 289 289 288 287 288 288 289 289 288 288 288 288 288 287 286 287 287 285 285 286 286 287 287 287 287 288 288 288 288 288 288 289 289 288
288 287 289 289 289 290 290 290 290 290 289 289 288 289 289 290 290 291 290 289 290 288 288 288 289 290 289 289 288 287 287 289 289 288 286 287 288 287 286 286 286 286 287 287 287 288 288 288 288 288 288 289 290 288
288 288 289 290 291 291 290 290 290 289 289 288 289 290 290 290 291 290 290 290 290 288 288 289 290 290 289 288 288 288 288 289 290 289 289 288 288 288 288 287 287 287 287 287 287 288 289 289 289 288 288 289 290 289
288 289 290 291 291 291 291 291 291 289 289 289 290 290 291 292 291 290 290 291 289 288 288 289 289 290 289 287 287 287 287 288 288 288 287 287 287 287 287 287 287 288 289 289 289 289 289 289 289 289 288 289 290 289
290 291 292 291 289 289 290 291 290 289 289 291 291 291 288 287 287 290 291 289 288 288 288 288 288 287 286 287 287 287 287 287 287 287 287 287 286 287 287 287 289 289 289 290 290 290 290 290 290 289 288 289 289 289
290 290 288 287 287 287 286 288 289 289 287 286 286 286 286 285 289 289 289 288 288 288 288 287 285 286 286 286 285 285 286 287 288 288 288 287 287 288 288 288 288 289 289 290 290 289 289 289 288 288 288 289 289 289
289 288 287 286 287 288 288 288 287 287 287 289 289 288 287 286 287 288 289 289 289 289 287 285 286 287 286 286 286 286 286 287 287 287 287 288 288 288 288 288 288 288 289 289 289 289 289 288 288 288 288 289 289 289
288 288 288 287 287 287 288 288 289 289 289 289 289 289 289 290 289 286 287 288 288 286 286 286 286 286 287 287 287 287 288 287 287 287 287 287 287 287 287 287 287 287 288 288 288 289 289 289 288 288 288 289 289 288
288 288 288 288 288 288 288 289 289 288 288 288 289 289 289 289 288 284 286 286 287 286 286 286 286 286 287 287 288 287 287 288 287 287 287 287 287 287 287 287 287 287 287 288 288 288 289 289 289 289 289 288 289 289

GFSWCAN_925_thetae_237.txt.gz
Theta_e
304 309 313 319 323 322 321 320 313 312 315 316 312 310 310 308 306 308 303 305 308 305 298 298 298 303 303 309 313 302 303 301 304 312 314 307 306 302 301 300 301 301 307 307 301 303 302 295 295 296 296 295 295 296
304 307 313 317 323 322 321 319 313 312 315 315 307 308 307 306 306 308 301 301 303 300 298 295 294 294 295 296 302 302 306 304 305 308 304 303 303 300 302 306 296 303 301 306 302 301 296 294 295 295 295 295 295 296
303 305 310 315 323 322 320 319 312 313 315 313 307 307 306 306 305 307 301 300 300 299 298 299 297 294 294 295 295 306 300 300 299 300 307 307 310 301 306 303 299 296 295 297 296 296 294 294 294 294 294 295 295 295
303 304 310 314 322 322 320 318 311 314 315 311 309 308 306 305 306 307 304 303 307 307 310 298 294 294 294 295 295 296 297 296 297 303 306 308 308 297 302 299 298 298 295 297 297 295 294 295 295 294 294 295 295 293
302 303 307 314 321 322 319 317 311 315 315 309 309 308 306 305 306 306 304 304 305 311 306 298 295 293 294 295 295 296 297 299 301 305 307 305 296 296 296 295 297 296 297 297 299 297 296 296 295 294 295 296 294 293
303 303 308 312 320 322 319 316 312 315 313 308 309 308 307 306 304 309 309 302 302 301 306 307 294 294 294 294 294 294 295 297 300 301 298 296 293 297 301 301 298 296 296 296 296 296 295 294 294 294 295 294 293 293
303 302 307 313 319 321 317 315 313 315 309 308 309 309 304 306 311 314 318 303 303 302 300 301 298 293 292 294 294 295 295 296 298 297 298 297 296 296 300 300 297 295 294 295 295 294 294 294 295 294 294 293 292 293
302 303 306 313 318 320 317 313 314 313 308 313 309 303 307 308 305 303 300 301 302 302 304 302 297 296 292 296 296 293 297 297 295 296 296 297 295 295 298 298 294 294 295 295 295 294 295 294 294 294 292 292 293 293
302 303 305 312 317 318 317 312 314 308 312 307 305 308 308 307 306 300 300 301 303 307 300 303 306 305 293 295 295 295 295 300 293 299 297 294 299 298 299 297 294 294 295 295 294 293 294 295 295 293 292 292 293 293
302 301 303 312 316 317 314 312 311 309 306 306 310 316 312 299 299 300 306 313 300 297 303 302 299 298 297 298 297 299 297 298 301 296 293 295 299 299 295 295 295 294 295 295 294 294 295 295 294 293 292 292 292 292
301 302 304 311 313 314 310 313 308 307 306 312 304 302 295 298 304 307 303 306 301 303 301 298 299 297 293 300 299 296 299 296 303 299 298 302 300 297 294 294 294 294 294 294 294 294 295 295 293 292 292 292 292 292
301 302 305 312 311 311 310 311 307 307 310 312 302 297 298 301 302 310 305 302 308 311 297 299 297 296 294 296 298 295 299 295 304 293 296 301 301 295 293 294 295 294 294 293 294 295 294 293 292 292 291 292 292 292
301 303 307 312 310 308 312 309 306 311 312 309 304 301 304 302 310 316 313 313 307 298 296 296 297 295 294 296 296 297 300 302 293 297 303 304 297 293 292 294 294 294 293 293 294 293 293 292 291 291 291 292 292 292
300 303 307 312 309 308 313 305 310 313 313 304 305 308 310 308 312 314 317 312 301 298 299 299 296 299 296 298 297 302 295 295 298 300 304 302 295 293 293 294 294 293 293 294 293 292 291 291 291 291 291 292 292 292
299 302 306 311 308 307 309 307 312 315 313 306 306 316 308 311 307 304 298 297 296 299 297 297 298 299 297 295 296 294 294 300 301 305 303 299 294 292 293 294 294 293 293 293 292 291 291 291 290 291 291 291 292 292
298 301 309 309 307 305 305 309 312 315 301 303 304 307 310 308 300 300 299 297 297 298 299 300 300 302 298 299 296 300 304 307 311 300 298 295 293 293 294 293 293 293 293 293 292 291 291 290 290 291 291 291 292 291
298 304 311 308 307 305 308 309 312 312 310 304 304 305 310 310 306 302 298 296 296 300 306 303 305 307 297 300 302 299 302 306 301 297 294 294 293 294 293 293 292 292 292 292 291 291 291 290 290 290 291 291 291 291
298 300 310 308 306 305 307 309 310 316 305 297 308 305 305 310 304 300 296 296 298 302 302 307 297 298 303 305 303 301 296 295 296 294 294 293 292 293 293 293 292 292 292 291 291 291 290 290 290 291 291 291 292 291
298 303 308 307 307 307 318 304 304 299 296 296 297 296 299 300 303 298 296 296 296 297 297 303 304 305 303 301 301 297 296 294 293 292 293 292 293 293 292 291 291 291 291 290 290 290 290 290 291 290 290 291 292 291
298 300 307 305 308 299 300 295 293 297 300 296 295 295 297 296 296 297 297 295 296 297 299 301 306 303 301 298 297 297 295 293 292 292 293 292 292 291 291 291 291 290 289 289 289 289 290 290 289 290 290 291 292 291
299 303 306 308 300 294 294 295 293 293 294 294 294 294 293 295 295 296 296 296 299 301 302 300 299 295 292 293 294 294 292 292 293 293 293 292 291 291 290 290 290 289 289 289 289 289 290 290 290 290 290 291 291 290
303 306 307 302 293 289 290 290 292 292 293 293 293 293 294 295 295 295 295 295 297 298 298 295 294 291 292 292 292 292 291 292 292 292 291 291 291 291 290 290 289 289 289 289 289 289 290 290 289 289 289 290 290 290
307 306 296 291 290 291 291 290 293 294 295 294 293 294 293 293 293 292 296 297 297 294 292 293 291 291 291 291 290 290 291 292 292 291 291 291 290 290 289 288 289 289 289 289 289 289 289 288 288 289 289 290 290 290
305 293 291 291 291 291 291 292 293 293 293 293 293 292 292 292 291 293 298 296 295 292 292 290 290 290 290 290 290 291 292 292 291 290 290 289 289 288 288 288 288 289 289 288 288 288 288 288 289 289 290 290 290 290
295 290 290 289 290 291 292 293 294 295 292 292 292 291 291 291 294 295 295 296 293 292 291 290 290 290 291 290 290 290 290 290 290 290 289 289 288 288 288 288 288 288 288 288 288 289 289 289 289 290 290 290 290 290
290 289 291 291 291 294 294 293 294 294 292 292 291 291 291 292 293 298 299 293 293 292 291 290 290 291 290 290 290 290 290 290 290 289 288 288 288 288 288 288 288 287 287 288 288 289 289 289 289 289 289 290 290 290
289 290 291 291 292 292 293 293 294 294 292 292 291 292 292 295 298 294 293 293 293 292 291 291 291 291 291 290 290 289 289 290 289 289 288 288 288 288 288 288 288 288 287 287 288 288 289 289 289 289 289 290 290 290
289 290 291 292 293 293 293 295 294 298 293 292 293 293 294 295 297 292 292 293 293 291 290 290 290 291 290 289 289 289 289 289 289 287 287 287 288 288 288 288 288 288 287 287 287 288 289 289 289 289 289 289 290 289
292 293 294 293 292 293 293 294 295 293 292 294 297 294 292 290 291 291 292 292 290 290 290 290 290 289 289 288 288 287 287 288 287 288 288 287 286 286 287 287 287 287 288 287 287 288 289 289 289 289 289 289 289 289
292 291 290 289 290 290 288 290 291 291 291 289 287 289 289 290 290 291 290 289 290 291 291 290 289 288 287 287 287 287 288 289 289 289 288 288 287 287 287 287 287 288 289 289 289 289 289 289 289 289 288 288 289 289
290 289 288 289 289 289 289 289 290 290 290 291 291 291 290 289 289 288 289 290 290 290 290 289 289 289 288 288 288 288 288 288 289 289 288 288 288 288 288 287 289 289 289 289 289 289 289 289 289 289 288 288 288 289
290 289 290 290 290 290 291 290 290 290 290 290 290 290 290 290 289 289 288 290 290 289 289 289 289 288 288 288 288 288 288 288 288 288 288 288 289 289 288 288 288 288 289 289 289 289 289 289 289 289 288 288 289 289
289 290 290 291 291 291 290 290 290 289 289 290 290 290 290 289 289 287 289 290 289 290 289 289 289 288 288 288 288 288 289 288 288 288 288 288 288 288 288 288 288 288 288 289 289 289 289 289 289 289 289 288 289 288

GFSWCAN_925_thetae_240.txt.gz
Theta_e
300 302 303 307 310 313 322 323 322 324 315 311 313 315 314 310 307 309 306 311 309 305 299 299 299 304 307 309 311 300 303 302 306 311 319 307 307 301 301 301 301 302 305 307 301 301 303 294 295 295 294 294 294 294
299 301 302 305 309 313 319 323 322 323 315 311 314 314 309 309 306 308 303 305 304 300 298 296 295 295 296 297 303 301 308 304 307 311 306 304 302 300 303 305 297 301 301 306 301 299 294 294 294 294 294 294 294 294
299 300 301 303 307 313 316 322 322 321 315 311 314 311 306 306 305 307 304 302 299 299 298 299 297 295 296 297 297 307 302 301 301 300 309 308 307 301 306 301 299 297 295 295 296 295 294 293 294 294 294 294 295 295
299 300 300 303 306 312 315 322 322 320 315 311 314 307 305 304 304 306 304 305 306 308 304 296 296 295 296 296 296 298 298 299 302 304 302 307 309 298 301 298 297 295 294 296 296 294 294 294 294 294 294 295 295 293
299 300 300 302 304 310 314 321 322 320 314 312 313 305 305 303 304 305 305 307 307 309 303 297 295 295 296 297 297 298 299 301 304 306 305 304 295 296 295 293 294 294 295 295 296 294 295 294 294 294 295 295 293 293
299 300 300 302 304 309 313 320 322 319 313 312 312 306 305 304 304 306 303 305 307 302 301 303 295 295 295 296 296 296 297 299 301 303 298 294 293 297 302 300 296 295 295 296 294 294 293 293 294 294 295 293 293 293
299 299 300 302 304 307 313 318 321 319 312 312 307 305 303 303 304 314 313 305 303 303 297 300 296 294 294 295 296 297 297 297 299 298 298 296 295 296 300 299 295 294 294 294 294 293 293 293 294 295 294 293 293 293
300 299 301 303 303 307 312 317 321 318 311 310 305 302 301 304 304 302 300 303 305 303 300 301 297 295 293 297 296 295 299 299 295 297 295 296 293 294 296 298 294 293 294 293 293 294 293 294 294 294 293 293 293 292
300 301 302 303 303 308 312 317 320 316 311 305 304 301 303 307 305 301 301 304 306 305 300 303 301 303 294 296 296 296 296 299 293 300 296 293 298 296 297 297 293 293 294 293 293 293 294 293 293 292 293 292 292 292
300 301 302 303 303 307 312 318 319 314 308 304 302 310 307 302 301 304 307 308 297 295 300 302 297 296 297 299 299 299 298 299 301 295 292 295 297 299 295 296 293 293 294 294 292 292 293 293 292 292 292 292 292 292
302 301 301 302 302 306 311 317 318 311 303 306 310 303 296 298 306 307 300 305 299 302 302 301 297 295 294 301 299 297 300 297 301 298 297 301 299 296 293 293 294 294 295 294 294 294 295 295 292 292 292 292 292 292
300 300 300 302 302 305 310 314 314 304 304 310 302 298 299 300 301 310 307 301 306 308 297 298 297 295 294 298 297 294 299 296 303 293 296 300 301 294 294 293 293 294 294 294 294 294 294 293 292 292 291 292 292 292
300 300 300 301 302 304 309 309 312 306 309 306 305 300 301 302 311 314 312 308 302 298 296 295 296 294 295 297 297 298 299 301 293 297 301 302 295 292 292 293 294 294 294 294 295 294 293 292 292 291 291 292 292 292
299 300 299 301 302 306 308 309 307 308 311 303 304 308 310 309 310 312 314 310 300 298 297 298 297 299 296 299 298 299 295 295 298 300 302 300 293 292 292 294 293 293 293 294 294 293 292 291 291 291 291 292 292 292
299 299 299 300 302 307 309 307 308 309 309 305 305 316 309 309 306 303 299 299 298 299 297 297 299 298 297 295 296 293 292 297 299 303 302 297 293 292 293 293 293 293 293 294 293 292 291 291 290 291 291 291 292 291
298 298 298 299 303 307 310 307 307 310 301 303 305 310 310 307 301 301 300 299 299 299 299 299 299 299 297 296 295 298 301 304 304 299 297 294 292 291 293 293 293 293 293 293 292 291 291 290 290 291 291 291 291 291
297 298 300 303 304 307 308 306 307 320 326 309 305 308 312 307 306 301 300 299 299 301 302 300 302 302 297 298 299 300 303 305 301 295 294 293 291 292 293 293 293 293 293 292 291 291 290 290 290 290 291 291 291 291
297 296 297 300 304 307 305 307 312 324 332 306 311 309 311 309 304 299 297 298 300 301 301 304 296 297 300 301 302 300 297 295 294 293 293 292 292 293 293 293 293 293 292 292 291 291 290 290 290 291 291 291 291 291
297 296 296 298 303 307 321 312 308 323 300 299 305 301 304 304 302 298 297 299 298 299 298 300 302 303 301 301 302 298 295 293 293 292 292 292 293 293 293 292 292 292 292 291 291 291 290 290 290 291 291 291 292 291
297 297 297 297 301 300 297 297 295 299 302 300 299 301 302 301 298 297 298 295 296 297 297 300 304 302 302 300 298 298 295 293 292 292 291 292 293 293 292 292 292 292 291 291 291 290 290 290 290 290 290 291 292 291
297 296 296 296 299 298 296 296 297 296 296 297 296 298 297 298 298 298 298 295 298 299 301 299 300 294 294 296 297 296 293 293 293 292 292 292 292 292 291 291 291 290 289 289 290 290 290 290 289 290 290 290 291 290
296 296 297 297 293 291 292 291 294 293 295 296 294 295 297 299 297 298 296 296 298 298 298 297 295 293 294 295 294 294 293 293 293 293 293 292 291 291 291 290 289 289 289 289 289 289 290 290 290 290 290 291 291 290
296 295 294 291 291 292 292 291 294 295 296 297 295 297 295 295 296 295 297 297 296 294 294 294 292 293 294 293 293 293 293 293 293 292 292 292 291 291 290 290 289 289 288 289 289 289 290 289 289 289 290 290 290 290
296 293 295 293 292 292 291 293 294 294 294 295 294 293 294 293 294 294 298 296 294 292 293 291 292 291 291 291 291 292 292 292 292 292 291 291 291 290 290 289 289 289 289 289 289 289 289 289 288 289 289 290 290 290
295 293 291 291 291 292 293 294 296 297 294 293 293 292 292 292 296 297 301 296 292 293 292 292 292 293 292 291 291 292 292 292 291 291 291 291 290 289 289 289 289 289 289 289 289 288 288 288 288 289 289 290 290 290
296 291 291 291 292 295 294 295 297 297 293 293 292 292 292 293 299 306 308 295 294 293 292 292 293 293 292 292 291 291 291 291 291 290 290 290 289 289 288 288 288 288 288 288 288 288 289 289 289 289 289 290 290 290
290 289 291 292 294 295 296 296 298 297 295 293 292 293 294 302 305 299 296 296 294 294 293 293 294 295 294 292 292 291 291 291 291 290 290 289 289 289 289 288 288 288 288 288 288 288 289 289 289 289 289 289 289 290
291 291 292 292 295 294 296 299 299 300 295 293 294 293 299 302 301 292 293 295 295 293 293 293 294 295 293 292 291 290 290 290 289 289 288 288 288 288 288 288 288 288 288 288 288 288 288 289 289 289 289 289 289 290
292 293 295 295 293 294 295 297 298 295 293 295 303 295 293 290 290 290 292 295 294 294 293 292 292 291 291 291 290 290 289 288 288 287 288 288 287 288 288 288 288 287 287 288 288 288 288 288 289 289 289 289 289 289
294 293 294 291 292 292 290 291 292 290 288 289 288 289 290 289 291 292 294 293 293 294 293 293 291 291 290 290 290 289 288 289 289 289 288 287 287 287 288 288 288 287 287 287 287 288 289 289 289 289 289 289 289 289
290 290 291 290 290 290 290 290 291 291 290 291 291 291 289 288 288 290 291 292 293 293 292 291 291 291 290 289 289 288 288 288 289 289 288 288 287 288 288 288 287 287 287 287 287 288 289 289 289 289 289 288 288 288
291 291 291 290 290 291 290 290 291 291 290 291 290 289 290 290 289 288 290 291 291 291 291 290 290 289 289 289 289 289 289 289 289 288 288 288 287 287 287 287 287 287 288 287 288 289 289 289 289 289 289 288 288 288
291 291 291 292 292 291 290 290 290 290 290 291 291 289 288 289 290 288 288 290 291 290 290 289 289 288 288 289 289 289 288 288 288 288 289 288 288 288 288 287 288 289 289 289 289 289 289 289 289 289 289 288 288 288

GFSWCAN_925_thetae_246.txt.gz
Theta_e
298 299 299 300 299 301 303 305 309 316 322 322 322 317 311 313 313 308 308 310 306 295 295 296 296 301 298 296 297 294 297 296 296 305 301 299 300 296 299 299 298 298 296 294 290 290 302 292 292 292 289 292 292 293
297 298 299 299 299 299 302 303 306 311 318 322 321 321 312 312 311 308 308 305 304 297 294 295 295 296 297 297 294 293 302 296 300 302 297 295 299 294 297 303 294 296 298 300 298 298 293 291 293 291 290 291 293 293
297 297 298 298 299 299 300 302 304 308 313 319 321 320 312 312 309 307 307 304 302 293 294 295 294 296 296 297 297 297 295 298 300 298 295 294 298 294 297 297 296 294 292 293 294 292 291 291 291 291 291 292 293 291
297 297 298 298 299 299 300 300 303 306 312 316 321 321 312 311 307 307 306 305 304 297 298 294 295 295 296 296 297 299 298 299 298 292 292 293 297 292 296 297 295 292 292 292 292 292 291 291 291 291 292 292 291 291
296 297 298 299 299 299 299 299 302 304 311 314 320 320 311 310 306 306 306 304 305 306 294 293 294 295 297 297 298 298 300 297 295 294 292 294 292 291 288 289 291 290 292 293 295 291 291 290 290 292 292 291 291 291
294 296 297 298 299 300 299 298 300 303 307 312 318 320 311 307 305 305 299 304 306 303 294 296 292 294 295 297 297 297 297 293 289 291 289 289 288 291 290 293 293 290 290 291 293 290 291 290 291 293 291 291 292 290
294 295 296 296 298 298 300 299 298 303 305 310 316 318 309 305 305 305 304 305 305 303 294 292 292 292 293 294 293 293 294 289 291 288 291 289 289 290 288 294 296 290 290 290 290 292 292 291 292 293 292 292 292 291
294 294 295 296 297 299 299 300 298 302 305 310 315 313 305 303 303 304 303 302 302 301 294 290 286 292 293 292 291 291 289 287 289 288 288 292 287 287 290 293 290 290 290 291 291 291 291 291 292 291 291 291 290 289
293 294 295 296 296 297 300 299 300 302 306 309 313 305 303 303 302 302 301 301 303 302 292 288 295 295 291 289 288 290 290 292 288 290 291 290 288 291 296 293 291 290 291 291 289 290 291 292 290 289 290 290 289 289
293 294 295 297 296 297 300 300 300 303 305 308 304 302 298 303 302 303 303 298 296 291 290 291 290 292 291 290 289 291 287 289 292 292 287 287 292 292 293 292 292 291 290 290 291 291 291 290 289 287 289 290 290 290
293 293 295 295 296 297 301 300 302 304 304 302 301 300 299 302 305 300 300 300 293 295 290 290 290 291 291 295 293 289 289 283 294 294 292 292 294 292 292 289 291 290 291 292 293 293 292 291 289 288 289 290 291 290
292 293 295 294 294 297 300 299 302 304 303 303 302 298 300 298 299 307 305 300 302 305 292 293 292 292 290 289 293 289 291 289 296 288 289 295 296 294 292 290 291 291 291 291 292 292 291 290 290 290 291 291 291 290
292 294 294 294 294 298 299 300 303 303 303 301 300 297 298 300 310 310 310 306 303 294 292 292 294 292 292 290 291 290 291 295 290 289 295 297 295 291 289 290 290 291 291 291 291 292 291 290 291 291 291 291 291 289
291 294 294 293 293 299 299 302 301 303 304 304 303 304 303 308 307 305 311 304 298 294 295 296 293 296 293 293 290 295 287 289 291 295 299 297 293 291 289 291 291 290 290 291 291 291 290 290 290 291 291 291 291 289
291 293 293 294 297 301 301 301 301 302 304 308 308 308 307 302 295 299 297 295 293 296 295 295 294 295 293 294 287 288 288 292 296 300 297 294 292 290 290 291 291 290 291 291 291 290 289 290 290 291 291 291 290 288
291 293 293 295 300 301 300 301 301 301 301 305 306 308 302 301 294 296 296 294 297 299 295 296 292 292 289 291 289 297 299 301 301 294 295 292 291 291 290 291 292 291 291 291 290 290 290 290 290 290 291 291 290 288
291 292 293 293 296 298 299 299 299 310 316 308 307 302 306 303 303 295 296 297 298 301 307 298 302 302 289 288 294 296 301 302 298 294 292 293 292 291 291 291 291 291 291 290 290 289 290 290 290 290 290 290 290 289
291 292 292 293 295 295 300 300 301 296 300 299 306 302 304 303 298 297 296 298 301 303 300 305 292 291 297 300 299 298 296 293 293 293 292 291 291 292 291 291 291 291 291 290 290 289 289 289 289 289 290 290 290 289
291 292 293 294 296 294 296 299 297 299 299 299 298 294 300 300 302 298 298 300 294 296 297 296 299 299 299 296 300 298 295 291 291 288 288 290 291 291 291 291 291 291 290 290 289 289 289 289 289 290 290 290 290 289
291 292 294 294 295 293 294 295 294 297 301 299 297 300 300 302 299 299 300 294 297 300 302 298 300 298 300 298 298 301 297 292 291 290 289 289 291 291 291 291 291 290 290 289 289 289 289 289 290 290 290 290 290 289
292 292 293 294 293 292 293 295 296 296 299 301 297 301 298 298 300 300 301 294 298 302 303 297 297 295 296 296 299 297 293 295 296 295 292 290 290 291 291 291 290 290 290 289 289 288 289 288 289 290 290 290 291 289
292 293 294 294 292 292 292 292 296 294 296 298 297 298 300 301 301 300 296 298 297 309 297 297 296 295 296 297 296 296 295 295 294 294 293 292 290 290 291 290 290 290 290 289 289 289 288 289 289 290 290 290 290 289
293 293 293 291 294 294 293 291 295 296 300 300 300 301 300 300 299 297 300 299 296 294 295 294 293 296 297 295 295 294 293 294 293 293 292 292 292 291 291 291 291 290 289 289 289 289 288 289 289 290 290 290 290 289
292 292 293 294 293 294 291 292 292 295 296 299 304 298 297 298 296 297 303 298 294 292 291 293 295 294 293 293 293 293 293 294 293 292 292 291 291 291 291 290 290 290 290 289 289 288 288 289 289 290 290 290 289 289
293 293 294 293 292 291 292 291 293 295 297 297 296 294 295 296 299 300 303 302 291 293 293 296 297 298 297 295 293 294 294 293 293 292 291 292 291 291 290 290 290 289 289 288 288 288 288 288 289 289 289 289 289 289
294 294 293 291 289 290 291 292 293 296 296 295 297 294 293 297 303 306 306 299 294 296 294 296 297 296 297 296 294 293 293 294 294 292 291 291 291 291 289 288 287 287 288 289 288 288 288 288 288 288 288 289 289 289
294 293 291 287 288 290 293 294 296 296 296 295 294 294 296 304 307 303 297 303 298 298 297 298 299 300 298 296 295 296 294 294 294 295 293 291 291 291 290 289 289 289 288 288 288 289 288 288 288 288 288 289 289 289
293 286 291 291 291 293 294 295 297 297 299 295 293 297 305 310 310 297 294 295 302 298 297 298 300 301 299 297 295 294 293 293 293 292 291 290 290 290 290 290 290 288 288 288 289 289 288 288 288 288 288 289 289 289
286 282 287 291 288 293 294 297 300 300 296 294 301 299 300 294 293 290 289 298 298 298 297 296 296 299 296 295 294 293 292 292 290 289 290 289 288 289 289 290 289 288 288 288 288 289 289 289 288 288 288 288 289 289
283 288 292 290 290 293 295 295 294 292 290 291 289 290 289 287 286 289 293 297 298 299 300 299 296 296 294 293 292 292 292 294 295 295 293 291 291 289 288 289 288 287 288 288 288 288 289 288 288 288 288 288 289 289
286 289 287 292 292 294 293 290 288 289 290 290 288 290 290 288 287 291 293 297 299 300 300 298 296 297 295 294 293 291 292 293 294 296 296 295 291 288 288 288 288 287 288 288 288 288 288 287 287 287 288 288 289 289
290 292 292 287 289 289 288 290 290 290 290 291 291 287 288 289 290 288 293 295 297 299 300 298 297 296 297 297 296 296 296 293 293 294 293 290 288 288 288 288 288 288 288 287 288 288 288 287 287 287 288 288 288 288
291 291 294 290 291 291 289 290 289 289 288 289 289 289 289 291 293 291 290 293 296 299 299 298 298 298 296 296 295 295 294 292 292 292 290 289 289 288 288 288 288 288 287 287 288 287 287 287 287 288 288 288 288 288

GFSWCAN_925_thetae_252.txt.gz
Theta_e
296 297 298 298 299 299 300 300 300 301 303 306 308 316 320 313 312 308 307 306 304 296 295 296 296 296 294 295 298 293 296 295 295 301 303 302 302 297 300 299 299 299 295 293 289 293 306 290 290 293 291 289 290 290
296 296 298 298 297 298 299 299 300 299 299 303 306 309 319 318 311 307 307 305 303 298 295 294 295 296 296 296 293 291 301 295 298 301 298 295 299 293 298 303 293 299 299 301 300 301 292 290 292 290 289 289 290 289
296 296 296 297 298 299 299 300 300 297 297 298 303 306 313 318 311 308 307 303 301 294 294 295 295 295 296 296 296 296 293 296 298 297 295 295 300 294 298 298 297 294 293 295 297 295 292 290 291 289 289 289 289 288
295 295 296 297 297 298 299 300 301 298 297 298 300 304 308 316 315 309 305 304 304 299 301 296 294 295 296 296 297 298 297 297 295 291 291 293 300 292 296 297 297 293 292 293 293 291 291 290 289 289 290 290 288 289
294 294 296 296 296 297 298 298 299 300 297 298 298 302 306 311 316 309 306 304 304 307 299 293 293 294 296 296 297 299 299 295 294 294 293 297 291 291 287 290 292 289 293 296 301 293 294 291 290 289 290 289 288 288
294 295 295 295 295 295 297 298 298 299 297 296 298 299 305 307 312 306 300 306 303 303 295 297 291 293 295 297 297 296 295 289 288 292 290 289 287 292 294 297 297 289 290 292 296 290 289 289 290 291 290 288 289 289
295 294 294 294 295 295 295 296 298 298 298 298 297 297 302 305 306 305 305 307 304 304 296 293 293 291 292 292 292 292 291 287 291 287 291 290 290 288 289 299 300 290 289 288 288 290 290 290 290 290 290 290 291 289
293 292 293 293 293 294 295 295 298 297 298 298 298 297 302 306 306 302 304 305 301 302 295 292 288 292 292 291 292 290 291 289 288 287 287 290 287 288 294 296 293 288 288 288 289 290 289 289 290 289 290 289 287 286
293 293 293 293 293 293 294 294 298 297 297 299 298 298 303 304 301 302 304 300 301 302 297 291 298 297 290 288 288 291 290 295 288 290 290 289 288 294 300 298 292 289 291 290 288 288 289 290 290 288 289 287 286 286
292 291 292 292 292 293 294 294 296 296 298 299 299 302 301 303 303 299 300 301 299 295 289 293 290 293 291 290 288 292 288 291 296 294 287 289 294 294 296 296 294 290 289 290 290 289 289 290 289 288 288 289 288 287
291 291 291 291 291 292 294 294 296 296 298 298 299 299 301 300 301 299 301 302 300 301 290 290 290 291 289 295 294 290 291 282 296 296 294 296 294 295 302 295 291 290 290 292 293 292 292 291 289 288 288 288 288 288
290 290 290 291 291 292 293 294 295 295 298 299 299 300 300 297 298 302 303 300 302 304 291 293 292 292 289 289 294 289 293 288 300 288 289 298 298 298 295 297 291 290 290 290 292 290 290 290 290 289 288 288 289 288
290 290 290 291 291 291 292 293 295 296 295 300 298 295 295 297 302 306 306 306 301 294 290 292 295 291 289 289 289 290 292 297 290 290 298 300 299 294 291 292 290 290 291 290 290 291 290 289 289 289 288 289 289 287
290 289 289 290 291 291 292 293 293 294 295 297 297 298 299 302 302 305 304 298 296 292 293 298 293 296 292 294 290 296 287 288 290 293 300 298 297 293 289 290 290 290 290 290 290 289 289 288 289 289 289 289 289 287
290 290 290 291 291 291 292 293 293 293 296 297 297 301 300 301 302 299 293 293 292 296 299 295 296 295 293 292 290 287 289 292 294 303 300 299 295 292 290 290 290 290 290 290 289 289 288 289 288 288 289 290 289 287
290 290 290 290 291 291 292 291 292 295 296 297 295 299 299 302 301 298 294 290 295 299 298 297 296 298 298 295 288 296 298 300 304 296 299 295 292 291 290 290 290 291 291 290 289 289 289 289 289 288 289 289 288 287
291 290 290 290 291 291 291 292 295 296 295 297 298 296 299 301 303 298 294 295 298 301 304 296 302 305 291 290 293 296 300 305 302 299 295 294 292 291 290 290 290 291 290 290 289 289 289 289 289 288 288 288 288 287
290 290 290 290 291 291 293 294 296 295 296 297 300 300 300 303 303 298 295 297 300 302 299 303 293 293 299 300 297 297 296 296 293 294 292 290 290 290 291 290 290 291 290 289 289 289 289 288 288 288 288 289 287 286
290 290 290 291 292 292 292 292 294 297 296 296 293 295 294 298 301 303 297 297 297 296 298 295 299 302 304 296 300 302 296 296 296 292 290 289 291 291 291 290 290 290 290 289 289 289 289 289 289 289 288 288 286 286
290 290 290 290 290 291 293 294 291 296 296 294 295 296 296 297 298 299 299 298 297 299 304 303 307 302 302 300 298 303 303 296 292 290 288 288 290 290 290 290 290 290 290 289 289 289 289 289 289 288 288 287 286 286
290 289 289 290 291 291 292 293 294 295 293 293 289 294 295 293 298 299 299 297 299 301 305 307 296 297 298 297 297 300 297 295 296 295 291 289 289 291 290 291 290 290 290 289 289 289 289 288 288 288 289 288 287 287
290 289 290 290 292 292 291 291 293 294 295 297 295 293 296 299 299 300 298 299 300 303 305 303 299 298 297 297 298 299 298 296 294 294 293 292 290 290 290 290 290 290 290 290 290 289 289 288 288 288 289 288 288 288
290 290 289 291 292 293 292 289 293 294 291 296 297 296 295 298 299 298 300 299 300 298 302 303 296 296 296 296 297 297 297 296 294 293 292 292 292 292 292 290 291 290 290 290 290 290 289 287 288 288 288 288 288 287
289 289 289 289 291 293 289 293 293 294 294 296 298 302 301 300 298 301 303 302 301 298 296 295 295 296 294 294 294 294 294 296 293 292 292 292 291 291 291 291 291 291 291 290 290 289 288 288 288 288 288 287 287 287
287 287 288 286 287 292 286 285 291 294 294 283 290 297 298 296 300 302 303 304 303 300 301 299 297 302 307 306 294 293 295 294 294 293 292 293 292 291 291 291 291 290 290 290 289 288 288 288 288 288 287 287 286 287
287 283 287 284 282 290 288 289 286 290 289 288 289 289 294 296 299 301 302 304 301 302 302 301 302 301 302 305 304 293 294 295 295 293 292 293 292 292 291 290 290 289 290 290 289 288 288 288 288 287 287 287 287 287
284 282 282 276 284 287 287 290 289 288 288 289 286 291 291 297 299 299 299 299 300 300 305 304 303 302 304 303 297 297 295 295 295 295 294 293 293 294 293 292 291 291 290 290 289 289 289 288 288 288 288 288 288 287
287 283 286 286 285 288 291 291 290 291 289 288 288 290 293 297 300 300 298 297 298 301 303 305 305 304 304 305 301 295 294 294 295 294 293 293 293 293 293 293 293 291 290 290 289 289 289 289 288 288 288 288 288 287
283 285 284 285 288 288 288 289 291 291 289 290 293 295 293 293 296 296 295 297 299 300 299 298 299 300 300 299 296 296 294 294 293 290 291 291 289 290 292 293 292 290 290 289 289 289 289 289 289 288 288 288 288 287
283 284 285 287 288 288 289 289 289 291 292 292 292 292 292 291 293 296 295 293 296 299 299 301 300 298 297 295 294 294 294 295 296 295 294 292 292 292 291 291 290 290 289 289 289 289 289 289 289 288 288 287 287 286
286 287 283 287 288 289 289 289 287 288 287 290 289 293 294 295 291 294 293 294 295 297 298 299 299 300 298 297 296 294 293 293 295 296 297 297 295 291 291 291 290 290 289 289 289 289 289 288 288 288 287 287 286 286
280 286 288 287 289 290 282 286 288 290 291 291 291 288 287 288 291 292 296 295 294 295 297 299 299 300 300 299 297 297 297 297 294 295 296 296 294 292 291 290 290 289 289 289 289 289 289 288 288 288 287 287 286 286
282 288 290 290 289 283 288 288 286 287 284 290 291 291 291 292 293 292 294 296 297 297 298 299 299 299 300 301 300 298 298 298 296 295 296 296 296 292 291 290 290 289 289 289 289 289 288 288 288 287 287 287 287 286

GFSWCAN_925_thetae_255.txt.gz
Theta_e
297 297 296 297 299 298 298 299 300 300 299 299 301 304 307 317 312 309 306 307 304 297 295 296 297 295 294 296 298 293 297 296 296 301 305 303 303 299 300 299 299 301 299 297 293 298 309 291 290 297 296 290 290 290
297 296 296 297 297 298 299 300 300 301 299 297 300 302 304 310 313 309 305 304 302 297 295 294 295 295 296 296 293 291 301 295 299 301 299 297 300 294 299 304 294 302 302 305 303 305 293 291 292 290 290 291 290 290
297 296 296 296 296 298 298 299 300 301 300 297 298 301 302 305 311 309 305 302 300 293 293 294 295 295 296 296 295 296 292 295 297 297 296 297 303 296 301 299 298 294 293 298 299 296 294 291 290 289 289 290 289 289
297 296 295 295 296 297 298 298 299 300 300 298 298 300 301 304 307 310 305 304 302 299 301 296 294 294 295 296 297 298 296 296 294 291 294 297 305 294 298 298 299 295 293 295 295 293 291 291 290 290 290 290 289 288
296 296 295 295 296 296 296 297 298 298 299 299 297 296 301 303 305 311 307 304 303 306 299 293 292 294 296 295 297 298 298 295 294 295 295 300 292 293 287 292 295 291 296 299 303 297 298 295 291 290 290 290 289 288
295 294 294 296 295 295 295 295 296 298 298 298 298 298 299 302 304 304 300 308 303 302 296 297 291 292 295 297 296 295 293 290 289 294 292 290 287 294 296 299 299 292 291 294 299 290 289 289 290 290 291 289 288 288
294 295 295 295 294 294 294 295 295 298 298 298 297 299 297 300 301 302 305 302 302 303 297 293 292 291 292 292 291 292 290 288 292 288 292 290 291 291 293 299 302 293 291 289 289 290 290 290 290 290 290 289 290 288
295 295 293 293 293 293 294 294 294 297 297 297 297 300 296 301 305 305 305 302 299 302 296 292 289 292 291 292 293 289 290 289 289 288 287 291 288 288 294 296 297 291 289 289 290 289 291 290 290 289 289 289 287 286
293 293 293 293 293 293 293 294 294 294 297 297 299 297 299 302 301 302 300 299 299 301 299 294 299 299 290 288 289 291 289 293 288 290 291 291 292 297 300 302 295 290 292 291 288 288 289 290 290 288 289 288 287 286
293 293 292 292 292 292 293 293 294 295 296 297 298 300 298 302 301 299 299 300 299 296 290 295 291 294 291 290 288 292 288 291 295 294 287 290 295 294 297 299 297 291 291 290 290 289 289 290 290 289 289 289 288 286
293 292 291 291 291 291 292 293 293 295 296 298 299 298 299 300 301 300 299 300 300 301 291 291 291 292 289 295 294 291 291 282 296 297 295 296 295 296 300 300 295 292 291 292 293 294 292 292 290 289 288 288 287 286
292 291 291 291 291 291 291 292 293 294 295 295 296 299 300 297 296 300 302 300 301 303 292 293 292 292 289 290 294 289 293 288 300 288 290 300 299 300 300 303 295 292 291 292 291 291 291 291 290 290 289 288 287 287
292 291 291 290 290 291 291 291 292 293 294 294 298 295 296 297 300 303 305 305 304 295 290 292 294 290 289 290 291 292 293 297 290 291 299 301 301 299 296 295 293 292 291 292 290 291 290 290 290 289 288 288 288 287
291 290 290 290 290 291 291 291 291 292 293 295 297 299 298 300 301 304 302 298 298 293 292 296 292 296 293 295 291 299 288 289 290 293 300 299 300 300 293 293 291 291 291 290 290 290 289 289 289 288 288 288 287 286
290 290 290 290 290 291 291 291 292 293 293 295 296 299 298 298 300 298 293 291 292 294 297 294 294 295 294 293 292 289 289 294 295 303 301 300 302 295 292 291 291 291 290 291 290 290 289 289 288 288 288 288 288 286
290 290 290 290 290 291 291 291 291 292 293 294 296 298 300 298 297 299 294 293 292 296 298 299 299 300 299 295 288 298 299 299 302 295 299 300 297 292 290 290 291 291 291 291 290 289 289 288 288 288 287 287 287 286
290 290 290 290 291 290 291 291 291 292 294 294 296 295 298 301 301 297 296 295 294 299 304 301 305 308 291 291 293 296 299 302 301 300 297 297 296 292 289 290 290 290 290 290 289 289 288 288 288 287 286 286 287 286
290 290 290 290 290 290 291 291 291 294 296 294 296 294 293 300 302 299 295 297 299 298 299 304 296 292 298 301 301 296 295 295 294 294 295 292 290 289 290 289 290 290 290 289 289 289 288 288 288 288 287 286 286 286
290 290 289 290 290 291 291 292 290 296 295 293 292 295 293 294 300 301 298 298 297 297 297 298 302 300 302 298 301 299 297 298 300 295 291 290 290 289 290 290 290 290 289 289 288 289 288 289 289 288 287 286 285 285
291 290 290 290 290 289 291 292 291 292 296 295 294 295 294 293 299 300 299 296 299 299 302 304 305 300 302 300 297 300 300 296 293 293 290 289 289 289 290 290 290 290 289 289 289 289 288 289 288 288 287 286 285 284
291 290 290 290 290 290 289 291 292 293 295 293 285 291 292 290 292 298 300 296 298 300 302 301 296 304 304 297 297 297 297 295 297 298 295 289 289 290 290 290 290 290 289 289 289 289 289 289 288 288 288 287 286 285
290 289 289 289 289 290 290 288 291 292 294 296 296 288 292 294 295 294 296 299 300 300 299 300 300 299 301 301 298 298 298 297 295 294 292 291 289 289 290 290 290 290 290 290 290 290 289 288 288 288 288 287 286 286
289 289 289 288 289 289 288 289 293 292 291 290 297 296 295 288 291 293 299 299 299 298 301 301 300 299 297 298 297 297 298 296 294 292 292 291 291 291 291 290 291 291 290 290 290 290 289 288 288 288 287 286 285 285
289 287 288 287 288 286 283 291 293 293 294 295 295 292 296 292 294 295 296 298 299 297 297 299 300 301 301 298 299 304 301 296 293 292 292 291 290 290 291 291 291 291 291 290 290 289 288 288 289 288 287 286 285 286
287 287 287 285 275 289 287 289 292 292 294 294 293 292 288 295 299 298 296 297 298 299 298 298 299 300 302 303 304 305 302 296 293 293 291 292 291 291 290 291 291 291 290 290 289 289 288 289 288 288 287 286 286 286
287 281 285 282 277 283 284 287 288 288 287 284 291 286 292 290 291 294 298 299 297 299 299 299 300 301 302 302 303 304 304 296 296 293 291 292 292 292 291 290 290 290 290 290 290 288 288 289 289 288 287 287 287 287
283 279 279 274 278 281 285 287 287 288 289 291 288 292 292 295 294 294 295 297 299 298 301 302 302 302 302 302 303 303 305 297 296 298 297 293 292 292 292 291 291 291 290 290 290 289 289 289 288 288 287 287 287 287
282 278 282 283 286 286 286 284 286 288 287 289 290 291 292 292 294 294 294 298 299 300 300 302 303 303 303 303 303 303 299 296 295 295 293 293 292 292 292 292 292 292 290 290 290 289 289 289 289 288 288 288 287 287
284 281 285 285 283 283 285 286 287 288 288 289 291 292 291 290 291 293 294 295 297 297 299 299 301 301 300 298 300 300 297 293 293 292 293 292 290 291 293 292 292 292 290 290 290 290 289 289 289 289 288 288 287 287
283 284 284 285 285 286 286 286 287 287 288 289 289 289 290 288 291 293 292 292 293 294 296 297 300 299 298 297 296 296 296 294 295 297 298 294 293 293 292 292 291 291 290 290 290 289 289 289 289 289 288 288 287 286
282 284 281 286 287 287 287 287 287 287 287 288 289 290 290 290 290 291 291 291 292 293 295 296 297 299 299 298 296 293 293 294 295 295 296 297 297 294 292 291 291 291 290 290 290 290 290 289 289 288 288 287 287 286
281 285 287 285 287 287 282 284 287 287 288 288 288 289 289 288 290 291 293 293 292 292 294 296 297 298 300 300 300 300 299 299 298 297 296 295 295 294 293 291 291 290 290 290 290 290 290 289 289 288 288 287 287 286
282 286 287 287 286 283 286 285 281 283 287 288 289 289 290 290 291 291 293 294 294 294 295 296 297 297 297 297 298 299 300 299 299 298 298 297 295 294 292 291 291 290 290 290 290 290 289 290 289 288 288 287 287 286